STARLINK-2051 (47661 NORAD) Tracking and Keplerian Element Data

This shows tracking and keplerian element data for the satellite.

Feedback or suggestion? Click here.




ElementValue
Catalog47661
NameSTARLINK-2051
Epoch Orbit182
Epoch Day99.91667824
Epoch Year2021
RAAN199.3279
Inclination53.0484
Eccentricity0.0001136
Argument of Perigee74.6583
Mean Anonmoly293.7493
Mean Motion15.61620262
Decay Rate-0.0049144
L11 47661U 21012AT 21099.91667824 -.00491440 00000-0 -59508-2 0 9997
L22 47661 53.0484 199.3279 0001136 74.6583 293.7493 15.61620262 1823

Live tracking and technical data element details for STARLINK-2051 (NORAD 47661). STARLINK-2051 can be tracked NOW for your location showing map with azimuth and elevation plus other details from your city location.

Track the satellite on the map from your city or location and see movement details for azimuth, elevation, latitude, longitude, range, height, and movement on the map or in text.







IsCatalogInMostPopularTable: catalog: 47661, numindb: 17
Update: records affected: 1



GetName: 47661 STARLINK-2051

Hit Count: updated at: Sat, 10 Apr 2021 19:58:05 GMT